TimeCST,TemperatureF,Dew PointF,Humidity,Sea Level PressureIn,VisibilityMPH,Wind Direction,Wind SpeedMPH,Gust SpeedMPH,PrecipitationIn,Events,Conditions,WindDirDegrees,DateUTC
12:54 AM,37.0,30.0,76,29.88,4.0,SSE,9.2,-,N/A,,Haze,150,2012-12-09 06:54:00
1:05 AM,37.4,30.2,75,29.86,4.0,SSE,9.2,-,N/A,,Haze,150,2012-12-09 07:05:00
1:54 AM,37.0,30.9,79,29.87,4.0,SSE,8.1,-,N/A,,Haze,150,2012-12-09 07:54:00
2:54 AM,37.0,32.0,82,29.86,4.0,SE,8.1,-,0.00,,Haze,140,2012-12-09 08:54:00
3:54 AM,37.0,32.0,82,29.83,4.0,SSE,10.4,-,N/A,,Haze,160,2012-12-09 09:54:00
4:54 AM,37.9,33.1,83,29.83,4.0,South,9.2,-,N/A,,Haze,170,2012-12-09 10:54:00
5:54 AM,37.9,33.1,83,29.85,4.0,SW,10.4,-,N/A,,Haze,220,2012-12-09 11:54:00
6:54 AM,35.1,27.0,72,29.88,10.0,WNW,13.8,-,N/A,,Mostly Cloudy,290,2012-12-09 12:54:00
7:05 AM,35.6,26.6,70,29.87,10.0,WNW,13.8,-,N/A,,Scattered Clouds,300,2012-12-09 13:05:00
7:40 AM,32.0,23.0,69,29.91,10.0,WNW,21.9,27.6,N/A,,Mostly Cloudy,300,2012-12-09 13:40:00
7:54 AM,30.0,21.0,69,29.93,10.0,NW,18.4,26.5,N/A,,Overcast,310,2012-12-09 13:54:00
8:12 AM,28.4,19.4,69,29.93,10.0,WNW,17.3,25.3,N/A,,Scattered Clouds,290,2012-12-09 14:12:00
8:54 AM,26.1,16.0,66,29.95,10.0,WNW,20.7,26.5,N/A,,Partly Cloudy,290,2012-12-09 14:54:00
9:54 AM,27.0,16.0,63,29.98,10.0,NW,21.9,28.8,N/A,,Clear,310,2012-12-09 15:54:00
10:40 AM,26.6,15.8,64,29.97,10.0,WNW,19.6,26.5,N/A,,Mostly Cloudy,300,2012-12-09 16:40:00
10:54 AM,27.0,16.0,63,29.99,10.0,NW,17.3,25.3,N/A,,Overcast,310,2012-12-09 16:54:00
11:54 AM,27.0,12.9,56,29.99,10.0,NW,26.5,32.2,N/A,,Overcast,310,2012-12-09 17:54:00
12:54 PM,25.0,12.0,58,29.99,10.0,WNW,21.9,31.1,N/A,,Overcast,300,2012-12-09 18:54:00
1:54 PM,23.0,10.0,58,29.99,10.0,WNW,31.1,39.1,N/A,,Overcast,300,2012-12-09 19:54:00
2:54 PM,21.0,8.1,57,30.02,10.0,NW,29.9,36.8,N/A,,Overcast,310,2012-12-09 20:54:00
3:54 PM,19.9,8.1,60,30.04,10.0,NW,32.2,38.0,N/A,,Overcast,310,2012-12-09 21:54:00
4:54 PM,18.0,7.0,62,30.07,10.0,NW,28.8,38.0,N/A,,Overcast,310,2012-12-09 22:54:00
5:54 PM,18.0,7.0,62,30.09,10.0,NW,28.8,41.4,N/A,,Overcast,320,2012-12-09 23:54:00
6:54 PM,16.0,6.1,65,30.13,10.0,NW,23.0,39.1,N/A,,Overcast,320,2012-12-10 00:54:00
7:40 PM,15.8,6.8,68,30.11,10.0,WNW,25.3,31.1,N/A,,Overcast,300,2012-12-10 01:40:00
7:54 PM,15.1,6.1,68,30.15,10.0,NW,24.2,32.2,N/A,,Overcast,320,2012-12-10 01:54:00
8:26 PM,15.8,5.0,62,30.11,10.0,NW,29.9,38.0,N/A,,Overcast,310,2012-12-10 02:26:00
8:54 PM,15.1,3.9,61,30.17,10.0,NW,23.0,35.7,N/A,,Overcast,320,2012-12-10 02:54:00
9:54 PM,15.1,5.0,64,30.17,10.0,NW,25.3,29.9,N/A,,Overcast,310,2012-12-10 03:54:00
10:54 PM,15.1,3.0,59,30.17,10.0,NW,21.9,29.9,N/A,,Overcast,320,2012-12-10 04:54:00
11:54 PM,14.0,1.9,59,30.15,10.0,NNW,23.0,32.2,N/A,,Overcast,330,2012-12-10 05:54:00